Vertical_Velocity
2 -6 -7 -0 -8 2 2 4 -1 -1 2 1 -4 -1 0 -1 3 -0 -1 -2 -1 2 -0 -0 1 2 -1
1 -3 0 -9 4 -4 2 3 -0 -1 2 3 5 4 0 1 1 4 -0 -3 -1 -0 1 2 0 2 2
-3 -0 3 6 -8 -0 -7 -4 -3 -6 6 1 -1 2 3 3 1 1 3 1 -3 -3 -0 -0 1 3 2
-1 -2 1 -11 -6 -4 -10 -5 -8 -6 -12 -5 -1 -3 -3 1 8 3 0 2 5 -1 -3 -1 -1 0 5
-2 -2 -3 -5 -1 -6 -0 -1 -8 3 -3 -2 -4 -6 -2 -2 -4 4 5 4 0 3 1 1 -1 -4 0
2 6 3 2 0 -2 -2 2 -10 -3 -1 -1 10 -3 -5 -6 -1 -2 1 2 4 3 1 3 3 -0 -5
-3 -1 0 7 2 0 4 3 -2 -1 -2 -13 2 -4 5 0 -4 -5 1 2 1 2 3 1 2 4 2
13 -3 2 3 1 -3 -4 0 -5 -4 8 -12 -2 -5 -7 1 2 -1 -5 -3 4 3 0 2 2 2 3
10 3 4 4 6 6 -4 4 -0 -6 -4 -1 -1 -6 1 -3 4 7 2 -0 -4 2 4 2 -1 -0 4
-4 -2 9 -4 12 15 5 0 6 -7 -6 6 -2 6 -3 -2 -3 -1 9 0 5 -6 1 3 2 -0 0
-2 -3 -2 1 -14 4 11 7 1 -0 6 13 -1 7 12 1 -2 -4 0 4 4 3 -2 -2 2 3 2
-0 0 3 2 2 2 -1 -1 1 2 5 4 4 4 5 5 6 1 -2 -2 3 3 2 3 2 2 4
1 1 3 3 2 1 -2 0 1 -1 4 4 -2 2 4 1 6 1 6 1 2 2 0 -1 -0 1 -0
-1 2 0 -1 -6 -0 -1 1 -2 -5 6 5 2 1 -2 1 5 1 2 2 1 3 3 2 2 1 0
0 3 -1 -2 -2 1 2 -2 0 1 -1 -6 8 -5 1 3 -3 0 0 -2 -1 1 2 3 0 0 1
1 -0 -2 -0 -1 -0 0 0 -1 -3 1 -4 3 -6 -3 1 -1 -3 1 0 1 2 1 1 1 2 1
-2 -2 0 1 2 1 -0 1 -2 -1 -1 -0 4 1 0 1 -1 -2 2 -0 4 1 3 1 0 1 2
Height
1474 1471 1469 1466 1462 1460 1457 1455 1452 1451 1448 1446 1444 1444 1443 1443 1442 1441 1441 1440 1440 1440 1440 1440 1441 1442 1442
1467 1465 1463 1461 1457 1454 1452 1448 1445 1444 1442 1440 1438 1436 1435 1435 1435 1435 1434 1434 1435 1435 1436 1436 1436 1437 1438
1459 1458 1456 1454 1450 1448 1445 1441 1438 1437 1436 1434 1431 1429 1428 1428 1428 1428 1428 1428 1428 1429 1430 1431 1432 1433 1434
1454 1451 1448 1446 1444 1440 1436 1435 1432 1431 1429 1428 1426 1423 1421 1420 1420 1420 1421 1422 1422 1423 1425 1426 1427 1429 1431
1448 1444 1440 1438 1437 1435 1432 1429 1427 1424 1421 1419 1418 1417 1415 1413 1412 1413 1414 1415 1416 1417 1419 1420 1422 1424 1426
1442 1439 1435 1433 1431 1428 1426 1423 1419 1419 1415 1412 1412 1409 1408 1407 1406 1406 1406 1408 1410 1411 1413 1415 1417 1418 1421
1435 1433 1430 1429 1426 1423 1421 1418 1415 1413 1410 1403 1404 1401 1402 1400 1398 1399 1400 1401 1403 1404 1406 1409 1412 1414 1415
1429 1426 1424 1422 1420 1418 1415 1412 1409 1406 1405 1398 1397 1395 1394 1393 1391 1391 1392 1395 1397 1399 1401 1404 1406 1409 1410
1423 1420 1418 1416 1413 1411 1408 1406 1401 1399 1398 1394 1390 1389 1389 1385 1385 1383 1386 1387 1390 1393 1395 1398 1401 1403 1406
1416 1413 1412 1409 1406 1405 1403 1400 1398 1394 1392 1390 1387 1385 1382 1379 1379 1379 1380 1381 1383 1385 1390 1393 1395 1397 1400
1409 1407 1405 1403 1401 1399 1398 1396 1393 1389 1387 1386 1383 1381 1379 1377 1377 1377 1378 1378 1378 1379 1384 1388 1390 1392 1396
1404 1401 1399 1397 1396 1394 1393 1391 1389 1385 1382 1381 1377 1376 1375 1373 1373 1373 1374 1375 1375 1376 1378 1382 1386 1389 1391
1399 1396 1394 1392 1390 1388 1387 1384 1382 1380 1378 1377 1373 1371 1370 1369 1369 1370 1370 1371 1372 1373 1374 1377 1381 1384 1387
1393 1391 1388 1386 1384 1384 1380 1378 1376 1374 1374 1372 1370 1368 1366 1366 1366 1366 1367 1367 1368 1369 1372 1375 1377 1380 1383
1388 1385 1383 1382 1380 1379 1376 1374 1372 1369 1367 1368 1367 1364 1364 1362 1361 1361 1362 1363 1365 1366 1367 1369 1372 1375 1378
1382 1380 1378 1377 1375 1374 1372 1370 1368 1366 1364 1364 1363 1362 1360 1359 1358 1357 1358 1359 1360 1361 1363 1365 1367 1370 1373
1377 1375 1373 1372 1371 1369 1368 1366 1364 1363 1362 1361 1360 1360 1358 1356 1355 1355 1355 1354 1355 1356 1358 1361 1363 1365 1368